Location: Unspecified
(36.5600°N, 136.6600°E)
Time: 14:30:52
(UTC+09:00)

Envisat - Visible Passes

Search period start: 21 June 2024 00:00
Search period end: 01 July 2024 00:00
Orbit: 762 x 764 km, 98.3° (Epoch: 20 June)

Date Brightness Start Highest point End Pass type
(mag) Time Alt. Az. Time Alt. Az. Time Alt. Az.
21 Jun 4.6 02:21:57 10° NE 02:26:20 29° E 02:30:25 11° SSE visible
21 Jun 4.1 04:00:53 10° N 04:05:12 29° WNW 04:09:29 10° SW visible
22 Jun 5.5 01:46:50 10° ENE 01:48:39 12° E 01:50:29 10° ESE visible
22 Jun 3.0 03:22:59 10° N 03:28:02 67° WNW 03:32:44 12° SSW visible
23 Jun 3.7 02:45:44 10° NNE 02:50:40 51° E 02:54:53 14° S visible
24 Jun 5.0 02:09:16 10° NE 02:13:07 21° E 02:16:56 10° SE visible
24 Jun 3.7 03:47:29 10° N 03:52:09 38° WNW 03:56:47 10° SW visible
25 Jun 3.0 03:09:49 10° NNE 03:14:55 90° WNW 03:19:21 14° SSW visible
26 Jun 4.2 02:32:47 10° NNE 02:37:29 37° E 02:41:31 13° SSE visible
27 Jun 5.4 01:56:48 10° NE 01:59:52 16° E 02:02:53 10° SE visible
27 Jun 3.3 03:34:10 10° N 03:39:05 51° WNW 03:43:50 11° SSW visible
28 Jun 3.2 02:56:42 10° NNE 03:01:46 67° ESE 03:05:59 15° S visible
29 Jun 4.6 02:19:56 10° NE 02:24:16 28° E 02:28:08 12° SSE visible
29 Jun 4.0 03:58:48 10° N 04:03:09 30° WNW 04:07:29 10° SW visible
30 Jun 5.6 01:44:58 10° ENE 01:46:34 11° E 01:48:10 10° ESE visible
30 Jun 3.0 03:20:55 10° N 03:25:58 69° WNW 03:30:26 13° SSW visible
